EUTE HOT BIRD 13C (HB 9)

导读

**EUTE HOT BIRD 13C (HB 9)卫星** 由欧洲卫星公司Eutelsat运营,属于"热鸟"卫星系列,2008年12月20日于法属圭亚那由阿丽亚娜5型火箭发射升空。定轨于东经13°赤道上空,配置64个Ku波段转发器,为欧洲、北非至中东地区提供数字高清电视直播、有线分发及数据通信服务,推动了高清、超高清电视业务普及。

基本信息
目录编号:
33459
目录名称:
EUTE HOT BIRD 13C (HB 9)
国际标识:
2008-065A
轨道中心:
EARTH
卫星名称:
EUTE HOT BIRD 13C (HB 9)
卫星全名:
--
卫星状态:
在轨 (已飞行6388 天)
发射日期:
2008-12-20 UTC
国别 :
(EUTE)
星等 :
--
轨道信息
数据来源 国际轨道数据 AOE轨道数据
星历时间 2026-06-17T01:54:27+0800
15小时前
查看轨道信息
2026-06-16T08:00:00+0800
1天前
查看轨道信息
半长轴 42164.981km 42164.981km
偏心率 0.0003284 0.0003147
轨道倾角 2.950° 2.948°
近地点辐角 5.750° 4.516°
升交点赤经 79.197° 79.201°
平近点角 38.385° 130.266°
近地点 35772.997km 35773.574km
远地点 35800.691km 35800.114km
周期 1436.110分钟 1436.110分钟
每日圈数 1.002709 1.002709
详细信息
使用方式:
暂无
2D轨道图
3D轨道图
轨道高度分析图
轨道倾角分析图
轨道综合分析图
查看轨道综合分析图